Theta_e
287 279 279 279 278 280 281 281 283 281 282 282 281 279 278 277 280 282 281 282 284 284 280 279 279 279 283 284 285 283 282 282 282 284 284 284 285 285 284 285 285 286 288 289 289 289 290 290 290 291 290 290 289 289 289 290 290 292 293 293 293 293 292 292 291 290 290 289 288 287 288 289 288 288 287 288 287 286 286 286 286 285 285 284 285 286
285 282 281 277 280 280 282 280 280 282 281 282 280 281 282 280 283 282 283 284 283 283 280 279 280 283 283 283 282 282 283 284 284 284 284 285 285 285 285 286 286 287 286 288 289 289 288 289 290 289 289 290 289 291 289 291 292 291 291 293 294 292 292 293 293 293 292 291 290 289 289 289 288 287 288 288 287 287 288 287 286 286 285 285 284 286
280 280 282 281 280 281 281 282 281 281 283 283 283 280 280 281 281 282 282 282 283 283 280 278 281 283 283 284 282 282 283 283 285 286 286 286 285 285 285 285 286 287 288 288 288 289 289 290 290 290 289 289 291 291 291 291 291 290 290 292 292 292 293 293 293 292 292 291 292 291 288 288 287 287 289 288 289 288 287 287 286 286 285 285 284 284
281 281 280 282 282 282 283 281 280 282 281 281 280 281 282 281 281 281 280 281 284 283 281 280 280 284 283 281 281 282 283 283 283 285 286 285 285 285 286 287 287 286 287 288 289 289 289 289 289 290 290 290 290 289 290 290 290 290 292 291 292 293 293 293 293 295 293 292 291 290 289 287 288 287 288 287 287 287 286 286 286 286 286 285 285 284
281 282 282 282 281 282 283 280 282 282 282 280 280 279 280 282 281 280 281 281 280 283 283 282 280 279 279 282 281 285 284 284 284 286 285 285 285 285 286 287 287 287 288 289 288 288 289 289 289 290 291 290 291 291 290 290 291 293 291 291 292 293 293 293 294 294 293 291 290 289 289 289 288 287 287 286 286 286 287 287 285 286 285 285 285 284
280 282 283 282 280 282 284 281 281 278 281 279 282 282 282 280 282 280 280 281 275 282 284 283 277 277 278 280 282 282 283 284 283 285 286 287 285 285 286 288 287 287 287 288 289 290 289 289 289 289 289 289 290 292 292 291 291 291 291 291 291 291 292 293 293 293 293 293 291 289 288 287 287 288 286 288 288 287 286 287 286 286 286 285 285 284
280 282 283 282 280 280 279 281 281 282 280 280 283 281 281 280 281 280 281 282 278 279 284 282 279 275 276 282 286 284 283 283 282 284 285 284 285 284 286 287 287 287 290 288 288 288 288 289 289 289 289 290 290 291 292 291 291 291 291 290 290 291 292 293 292 292 294 290 290 290 290 290 289 289 289 287 288 287 286 287 287 287 285 285 285 285
284 282 281 281 283 282 282 281 282 279 279 283 282 280 281 282 283 282 279 281 281 279 282 280 278 277 277 278 280 281 283 284 283 284 285 285 284 284 284 286 285 286 286 288 289 289 289 290 290 291 291 290 291 291 291 291 291 291 291 290 291 290 293 292 292 291 293 292 290 290 289 290 289 289 290 288 288 286 287 286 287 287 286 285 285 285
283 283 282 283 278 280 281 281 282 281 282 283 281 282 282 282 281 280 281 280 280 280 278 277 281 280 275 277 281 283 285 284 285 285 285 284 284 285 287 287 286 287 287 288 290 291 291 292 292 291 291 292 291 292 292 292 292 291 291 291 291 291 290 292 291 292 291 293 292 290 290 289 290 290 290 289 288 288 287 287 287 286 286 285 285 285
282 283 283 282 283 280 281 280 280 283 283 284 282 282 281 281 280 280 279 280 280 279 275 280 280 278 276 276 282 283 282 282 284 285 286 285 285 286 287 288 288 289 289 289 290 290 292 292 292 291 291 291 291 291 291 291 291 291 291 292 291 291 290 290 290 291 290 290 292 290 289 289 289 289 289 287 288 287 286 286 287 286 286 285 284 284
283 287 286 283 281 282 280 281 281 282 283 283 283 284 281 279 279 278 277 277 276 274 275 279 279 280 277 278 285 284 284 285 284 283 284 284 286 286 286 287 288 289 290 291 291 291 292 291 290 289 291 290 291 290 291 291 291 290 291 290 291 290 291 290 290 290 290 289 289 290 290 289 289 289 288 287 288 287 286 287 287 286 286 284 285 283
283 281 282 281 285 284 282 285 283 282 281 283 283 282 282 281 277 281 273 274 274 270 274 278 279 279 276 277 282 284 283 283 287 286 288 287 287 288 287 287 288 288 289 290 290 292 291 292 291 289 291 290 290 289 290 289 290 291 290 290 290 290 290 290 290 289 289 289 288 288 289 289 289 288 288 288 288 287 286 286 286 286 285 285 283 282
284 282 282 283 285 285 282 282 283 282 279 280 279 277 277 274 272 276 270 277 273 272 280 277 279 279 278 280 281 285 288 285 285 288 289 288 287 287 287 288 288 288 288 289 290 290 290 290 291 291 290 289 289 289 289 290 289 289 289 289 289 289 289 289 289 289 288 288 288 288 288 288 289 288 287 287 287 286 286 286 286 285 286 285 285 283
279 281 281 283 283 284 283 280 282 281 280 279 282 277 276 274 267 269 263 268 272 277 279 278 278 279 279 283 285 287 289 288 288 285 287 288 288 288 288 288 288 288 288 289 288 287 288 288 290 290 290 290 289 289 289 289 289 288 289 288 289 288 288 288 289 288 288 288 287 287 288 288 287 288 287 286 286 287 285 286 285 284 285 285 284 284
273 275 280 282 281 283 281 282 280 283 280 282 279 282 279 269 271 272 270 276 274 276 277 278 277 275 279 285 287 287 286 284 283 283 283 285 287 288 286 286 287 287 287 287 287 288 289 290 290 290 290 289 288 288 288 288 288 287 287 288 288 288 288 288 288 287 288 288 288 287 287 287 287 287 287 286 287 286 285 284 284 283 283 283 285 283
279 275 281 282 283 282 283 282 282 280 279 279 281 281 278 279 275 278 270 272 271 273 275 276 277 278 282 286 285 284 284 286 285 286 285 286 285 285 287 289 290 289 289 288 288 288 289 289 289 288 288 288 288 288 288 288 287 287 287 286 287 286 286 287 287 286 286 286 286 286 287 287 287 286 285 286 285 284 284 284 283 283 283 283 282 283
276 277 282 280 281 281 282 281 283 282 278 281 281 278 282 281 277 273 274 274 274 272 274 273 280 280 283 285 285 285 286 286 286 286 286 286 286 285 288 288 288 289 288 288 288 288 288 288 288 288 288 288 288 287 288 288 287 287 287 287 287 286 285 286 286 286 285 286 286 286 285 285 285 285 284 284 283 283 283 283 282 282 283 283 282 283
277 276 281 281 281 283 280 281 282 281 282 281 278 278 282 279 278 278 276 268 267 270 272 276 277 278 279 281 282 286 285 286 285 285 286 285 284 286 289 289 289 289 289 289 288 287 287 288 288 288 287 287 288 288 287 287 287 286 286 286 286 285 285 285 285 286 285 285 285 285 285 285 284 284 283 283 283 282 284 283 283 282 283 282 282 282
280 277 277 280 281 282 281 283 281 284 282 283 281 283 283 275 279 275 272 272 272 269 269 274 275 276 278 282 281 283 285 287 287 286 284 286 286 287 288 288 288 288 287 287 288 287 287 287 288 287 287 287 287 287 287 287 287 286 286 285 285 285 285 285 285 285 285 285 285 285 284 284 284 284 284 283 283 283 283 282 282 282 281 282 282 282
280 275 274 280 281 281 280 279 275 279 281 279 281 282 282 279 275 274 275 272 274 270 269 273 272 280 281 281 283 288 288 289 289 286 286 288 288 288 289 289 290 289 289 288 288 288 288 288 288 287 287 287 287 287 287 286 286 285 285 285 285 284 284 285 285 285 284 284 284 284 284 283 283 283 283 282 283 282 282 281 281 281 281 281 281 281
278 278 271 276 278 279 277 278 277 279 278 278 279 276 276 278 279 281 277 277 276 267 267 267 272 276 281 283 284 288 289 289 289 289 289 289 288 288 289 290 290 289 289 288 288 288 288 287 287 286 286 286 286 286 286 285 285 284 285 285 284 284 284 284 284 284 283 283 284 283 283 282 282 282 282 282 282 282 281 281 281 280 280 281 280 280
276 276 273 271 275 277 276 278 279 278 276 276 279 276 279 278 278 275 275 276 271 276 273 268 275 280 285 284 287 288 287 287 288 290 290 289 288 288 289 290 290 290 289 288 287 288 287 286 286 285 285 285 285 285 285 285 284 284 284 284 283 283 283 283 283 283 283 282 282 282 282 282 281 282 282 282 281 281 281 280 280 280 280 280 280 279
280 272 273 274 274 275 279 280 279 278 277 278 278 280 278 276 277 273 272 274 274 275 273 271 272 280 285 282 283 285 285 286 286 286 288 288 288 288 289 290 289 290 290 288 288 288 287 287 287 286 286 285 285 285 284 284 284 284 283 283 283 283 283 282 282 282 281 282 282 282 281 282 281 281 281 281 281 281 281 280 280 280 280 280 280 279
288 279 276 275 272 275 279 275 273 277 279 275 274 272 277 279 279 280 277 277 275 273 274 273 272 282 284 281 282 282 282 282 283 285 288 287 287 288 288 288 289 288 287 286 287 287 287 286 285 285 285 285 284 284 284 284 283 283 283 283 282 282 282 282 282 281 281 281 281 281 281 281 281 281 281 281 281 280 280 280 280 280 280 279 279 280
279 275 278 273 269 269 272 275 278 277 275 275 276 275 277 278 277 272 273 273 278 274 277 277 272 281 282 283 282 282 281 285 284 284 285 288 286 287 288 288 289 288 288 286 287 287 286 285 286 286 286 285 285 283 283 284 283 283 283 282 282 282 281 281 280 281 280 280 281 281 281 281 281 281 280 280 280 280 280 280 280 280 280 280 280 279
280 279 275 272 271 269 269 269 271 272 278 276 276 278 278 280 276 279 277 275 275 272 277 272 274 286 283 283 284 284 282 286 286 284 285 285 288 288 288 288 289 288 288 287 287 286 286 287 286 285 285 285 284 284 284 283 283 282 282 281 281 281 281 280 280 280 281 280 281 281 280 280 280 280 280 280 280 279 279 280 279 279 279 278 279 279
276 276 276 275 276 277 277 273 276 279 277 277 278 277 278 279 279 277 275 273 278 271 277 280 283 286 287 288 285 286 285 285 287 286 287 288 286 286 287 289 289 289 288 287 287 287 285 285 286 286 285 285 284 283 283 283 283 282 282 281 281 280 281 280 281 281 280 280 280 280 280 280 279 279 279 279 279 279 279 278 278 278 278 278 278 278
272 277 276 276 276 280 277 277 279 281 279 276 279 280 278 279 279 281 279 280 278 277 279 282 283 281 288 291 287 287 286 285 285 286 286 285 288 288 288 288 289 288 287 286 286 286 286 286 286 285 285 284 284 283 283 282 282 283 283 282 281 280 281 281 281 280 280 280 280 279 279 279 279 278 279 278 278 278 278 278 278 277 277 278 278 278
274 276 275 277 277 277 277 277 278 280 280 278 277 278 278 279 279 280 281 283 280 281 283 282 280 283 288 290 290 289 290 290 290 289 289 290 288 286 286 287 288 288 287 286 287 287 287 286 286 286 285 284 283 283 283 282 281 281 281 280 280 281 280 280 280 280 280 279 279 279 278 278 278 278 278 278 278 278 278 278 277 277 277 277 277 279
279 274 275 278 275 277 277 277 277 279 278 279 279 280 280 279 280 282 283 283 283 285 286 286 281 283 287 289 291 290 287 289 289 288 287 287 288 288 288 288 288 288 288 287 287 287 287 287 286 286 285 284 283 283 283 282 282 282 282 282 281 281 280 280 280 280 279 279 279 278 278 278 277 277 277 277 277 277 277 277 277 277 276 276 277 276
280 275 282 273 275 274 273 276 275 276 276 276 279 278 278 279 279 280 279 280 280 281 284 283 283 284 290 292 291 290 287 286 285 286 288 289 288 287 288 288 289 289 288 288 287 287 287 286 286 285 284 284 284 283 283 283 282 282 281 281 281 281 280 280 279 279 279 279 278 278 278 278 277 277 277 277 276 276 277 277 277 276 277 276 276 276
279 274 274 273 277 273 273 271 273 270 273 271 276 278 278 276 274 278 279 281 280 282 283 281 280 283 289 290 286 288 287 287 289 290 290 289 287 287 287 288 289 289 289 288 287 287 287 286 286 285 285 284 284 283 283 282 282 282 282 281 281 280 280 280 279 279 278 278 278 278 277 277 277 277 277 276 276 276 276 276 276 276 276 276 276 276
278 275 276 274 277 270 272 271 270 269 273 279 280 282 281 281 283 281 282 281 284 286 282 281 283 290 291 287 287 287 285 286 287 289 290 289 288 287 288 289 290 290 289 288 287 287 287 287 287 286 285 284 284 283 283 282 282 282 282 281 281 280 280 279 279 278 278 278 278 277 277 277 276 276 276 276 276 276 275 275 276 276 276 276 276 275
274 276 272 272 277 270 272 267 268 274 274 278 281 280 283 281 281 281 282 284 285 286 286 289 290 291 287 287 287 290 287 286 288 290 291 292 291 288 288 289 289 290 289 289 288 288 288 288 287 286 285 285 284 283 283 282 282 282 281 281 280 280 279 279 278 278 278 278 277 277 276 277 276 276 276 276 275 275 275 275 275 275 275 276 275 275
276 275 276 271 277 275 272 273 276 274 278 283 281 278 279 282 282 283 285 286 285 285 287 287 288 289 290 291 291 290 287 286 285 286 287 288 289 289 289 289 289 289 289 288 288 288 288 287 287 285 284 284 283 282 281 281 281 281 280 280 280 279 279 279 278 278 278 277 277 277 276 276 276 276 276 275 275 275 275 275 275 275 275 276 275 275
276 279 273 276 272 272 274 272 270 274 276 281 282 280 280 280 280 282 283 286 286 286 286 286 288 290 291 292 290 285 284 285 284 285 286 288 288 290 289 289 289 289 288 289 289 289 288 287 286 285 285 284 283 282 282 282 281 281 280 280 280 279 279 279 278 278 277 277 277 277 276 276 276 276 275 275 274 275 275 275 275 274 275 275 275 275
281 277 275 277 272 275 269 271 279 281 286 286 285 281 280 282 281 283 282 288 287 287 286 287 288 289 290 290 287 285 282 283 287 293 289 288 288 289 291 291 291 290 290 289 290 289 289 287 286 285 284 283 283 282 282 281 281 281 279 279 279 279 278 278 278 277 277 277 277 276 276 276 276 276 276 275 275 274 275 275 275 275 275 275 275 275
280 280 276 279 277 272 275 271 272 274 273 278 282 283 282 282 283 283 283 283 285 285 288 288 288 289 289 286 286 283 285 286 285 290 287 286 289 288 288 287 287 287 287 287 285 285 285 285 284 284 284 283 282 282 282 281 281 280 279 279 278 278 278 278 278 277 277 277 276 276 276 276 276 276 276 275 275 275 275 275 275 275 275 274 274 274
278 278 276 280 275 272 274 272 269 270 278 281 285 285 283 280 283 282 282 282 285 281 283 287 288 288 287 286 282 284 285 281 283 288 288 284 283 284 286 285 284 285 286 287 287 285 284 284 284 283 283 282 282 281 281 280 280 280 279 278 278 278 278 278 277 277 277 277 276 276 276 276 276 276 276 275 275 275 275 275 275 275 274 274 273 274
276 273 274 276 273 269 270 271 274 273 276 284 284 281 280 280 282 285 278 277 284 286 280 284 286 287 285 282 282 283 284 278 285 288 283 281 282 283 284 284 283 283 284 283 283 285 284 283 283 282 282 282 282 281 280 280 280 279 278 278 278 278 278 277 277 276 276 276 276 276 276 276 276 276 276 276 275 275 276 275 274 274 274 274 274 274
274 274 274 278 272 274 279 274 269 278 282 283 283 283 281 280 285 278 278 286 282 279 279 283 284 284 282 281 283 285 287 290 285 283 281 281 283 282 281 282 281 282 283 283 283 284 283 283 284 283 282 282 281 280 280 279 279 278 278 278 278 278 278 277 276 276 276 276 276 276 276 276 276 275 274 275 275 275 275 274 273 273 273 273 273 273
269 268 271 270 272 277 272 273 277 277 283 285 280 283 282 285 279 280 287 284 284 288 280 282 283 282 282 284 284 288 286 282 280 280 282 283 281 280 281 281 282 281 281 282 283 283 283 282 282 281 281 280 280 279 279 279 279 278 278 278 278 278 277 277 276 276 276 277 275 275 275 274 274 274 276 275 275 275 275 274 273 273 273 272 272 272
279 277 273 275 272 269 269 273 272 274 283 285 284 284 284 283 283 286 282 282 282 284 284 281 283 283 283 284 285 287 287 282 281 281 281 281 280 281 281 281 282 282 281 282 282 282 283 282 281 281 280 280 279 279 279 279 278 278 278 278 278 277 277 276 277 277 276 275 275 274 274 273 273 274 275 275 275 274 274 273 271 272 272 272 272 272
280 277 268 271 278 276 274 273 277 285 284 286 290 286 283 289 284 281 283 286 282 282 282 282 282 284 284 286 286 285 285 284 282 280 281 281 280 280 280 280 280 281 281 281 282 282 282 281 281 280 279 279 279 278 279 279 278 277 277 277 276 276 276 276 275 275 274 273 273 272 272 272 273 275 274 274 274 274 274 273 271 271 272 272 271 271
283 284 280 279 280 280 279 282 287 282 283 288 291 290 287 291 284 281 282 286 285 288 282 284 288 283 284 285 285 285 284 283 285 282 283 282 281 281 281 281 281 281 281 281 281 281 281 281 280 279 278 278 278 278 278 279 278 276 276 276 276 275 276 274 273 273 271 270 270 270 271 274 274 275 274 275 274 274 273 272 270 271 271 271 271 270
281 282 278 281 282 281 284 287 286 285 282 283 288 288 286 284 283 282 286 288 287 289 285 287 288 284 282 283 284 283 284 284 283 282 281 281 281 280 280 280 280 280 280 281 280 280 280 280 279 278 277 277 277 277 277 277 277 276 276 276 276 275 274 272 271 270 270 269 270 272 273 274 275 274 274 274 274 273 272 270 269 269 270 270 270 270
281 279 283 282 280 281 283 285 288 290 290 286 288 290 289 287 288 285 284 287 290 289 285 285 286 286 284 282 285 287 286 284 283 283 282 281 281 281 280 280 280 280 280 280 280 280 279 278 278 277 277 276 276 276 276 275 275 276 276 275 274 273 272 271 270 270 269 269 271 273 274 273 274 274 274 273 273 273 272 271 269 270 270 269 269 269
283 281 282 284 281 282 288 285 284 283 281 283 286 289 289 291 290 289 289 290 290 288 286 287 284 285 283 283 285 285 287 284 283 283 282 282 282 281 281 280 280 280 280 281 280 280 279 278 278 277 277 276 276 276 276 276 275 275 274 273 272 270 271 271 269 269 270 272 273 273 273 273 274 274 273 273 273 271 270 270 270 269 269 270 270 269
283 284 280 280 284 285 285 288 290 289 287 290 290 287 288 289 290 289 287 287 287 287 288 287 285 287 285 287 285 285 285 285 283 284 283 282 281 281 281 281 280 280 280 280 280 279 279 278 277 277 276 276 276 276 275 274 274 273 273 272 270 270 271 271 271 270 270 273 273 273 273 273 273 273 272 272 271 271 270 270 270 270 270 271 271 269
282 282 280 280 279 280 282 288 287 284 287 289 287 289 290 290 288 288 288 286 285 285 286 286 286 283 284 285 285 285 286 286 283 282 283 283 282 281 281 280 280 280 280 280 280 279 278 277 277 276 276 276 276 275 274 273 273 273 272 270 269 270 271 269 269 269 271 273 273 273 273 273 273 273 272 271 269 269 269 272 274 274 272 271 273 274
286 287 283 283 281 286 289 289 287 289 288 291 292 290 287 285 283 284 285 286 286 286 285 284 284 284 283 283 282 284 285 286 284 282 282 282 282 281 281 280 280 280 280 280 279 278 277 277 276 275 275 275 275 274 274 273 273 272 270 271 269 269 269 268 269 270 272 272 272 273 273 273 272 272 271 270 268 268 268 268 270 273 274 274 273 273
Wind_Speed
1 6 6 6 3 1 1 2 0 0 1 2 1 2 2 2 2 1 2 2 1 0 3 3 4 5 10 9 7 4 3 5 6 8 8 8 7 7 6 7 8 8 12 7 5 6 8 8 8 7 5 6 5 5 5 5 6 7 8 6 9 7 4 6 6 5 6 5 3 3 6 8 6 6 5 6 6 6 7 6 6 6 6 6 6 5
6 8 1 2 2 1 2 1 2 3 1 2 2 3 0 1 0 1 0 1 0 1 1 1 5 8 9 7 5 1 5 8 10 10 10 10 8 7 7 8 8 9 5 6 6 6 5 6 6 5 5 5 5 8 5 8 9 6 5 6 7 4 5 7 7 7 6 6 6 6 7 7 6 6 6 7 6 8 7 6 6 6 6 6 6 6
8 4 2 1 1 2 1 1 1 0 1 1 4 3 2 0 3 4 1 2 0 1 5 2 5 9 8 6 4 3 7 4 8 10 9 8 7 7 7 7 8 6 8 6 7 6 4 4 4 3 4 5 7 5 6 5 3 4 5 6 5 5 6 7 6 6 7 6 5 5 4 5 4 4 5 5 5 4 6 6 6 6 6 6 6 6
5 1 2 0 1 2 2 5 3 2 2 3 1 0 1 2 1 1 2 3 0 1 2 2 4 9 7 4 4 5 6 4 4 6 9 5 7 8 8 6 6 6 7 7 6 6 7 5 4 3 4 4 3 4 4 4 5 4 5 6 6 6 6 6 7 8 7 5 5 4 2 2 3 3 2 3 4 3 3 6 5 6 6 6 7 6
1 0 0 1 3 1 1 4 4 1 1 1 2 2 1 0 0 1 1 4 3 0 0 1 3 6 4 2 3 1 2 4 5 2 5 6 7 6 5 5 5 7 5 6 6 6 5 5 4 4 5 3 4 4 5 5 5 4 6 7 6 6 7 6 6 8 5 3 2 2 1 1 3 3 3 3 5 4 4 4 5 7 4 6 7 6
3 1 0 2 3 2 1 2 1 3 1 2 1 1 1 1 0 2 3 3 2 1 1 2 2 3 4 5 6 7 2 2 2 2 6 6 5 4 6 8 3 4 5 5 3 2 3 2 4 4 3 3 4 5 6 4 5 5 7 5 5 5 5 7 6 6 5 6 6 4 4 5 5 7 4 7 8 5 5 6 4 4 6 6 7 7
2 2 2 1 3 4 4 1 0 1 4 1 1 2 2 2 2 1 3 1 1 1 2 2 2 2 4 2 3 2 2 5 4 2 6 5 6 5 7 6 4 2 0 1 1 1 3 3 3 4 4 4 3 4 4 4 5 5 6 5 5 5 5 4 4 4 4 5 5 7 8 7 7 8 6 4 4 5 5 5 6 6 5 6 7 7
0 3 4 4 2 2 1 0 0 3 1 0 0 3 3 2 1 0 3 2 0 1 3 5 3 2 3 4 3 4 1 4 4 6 6 5 5 4 4 4 4 2 2 0 1 1 1 1 1 2 3 3 3 4 4 3 3 4 5 4 4 4 4 4 4 4 6 7 6 6 7 7 7 7 9 5 4 3 3 4 6 5 6 6 6 7
1 1 1 1 3 1 1 1 0 1 0 1 1 2 1 1 1 2 1 1 0 0 5 2 2 0 3 4 2 1 2 4 6 7 5 4 3 2 1 1 2 3 3 2 3 1 1 1 2 2 4 3 4 5 5 4 4 4 3 3 2 3 3 4 2 4 5 6 6 7 5 6 6 6 7 5 3 4 4 5 5 5 6 5 5 6
3 1 0 2 1 2 1 1 1 1 0 1 1 2 3 2 2 1 1 2 1 1 4 2 1 1 7 4 1 2 1 6 7 8 8 6 4 3 3 2 2 1 1 1 1 1 1 1 1 1 1 4 4 3 3 4 5 5 5 5 5 5 4 3 3 2 4 5 5 5 5 7 7 5 6 4 5 5 4 4 6 6 6 6 5 6
1 2 5 3 1 1 1 1 1 1 0 0 3 1 2 3 2 1 4 2 2 0 5 1 0 1 4 4 8 6 6 8 6 3 4 4 3 4 4 5 4 4 3 2 1 1 0 0 1 3 4 3 4 4 4 5 5 4 5 5 6 5 4 4 4 1 3 3 4 5 5 6 6 6 5 5 6 5 4 5 6 5 6 4 6 4
1 2 1 0 0 1 1 0 0 0 1 1 0 1 1 1 4 1 3 4 1 4 2 2 1 1 3 4 5 8 3 4 10 8 9 7 7 6 5 5 4 4 4 2 2 1 1 1 3 3 3 3 3 4 4 4 4 4 4 5 6 6 6 6 5 5 3 1 3 4 4 5 6 5 5 5 6 5 5 5 6 6 5 5 4 3
0 0 1 5 1 2 0 1 0 1 2 3 3 4 1 4 5 2 3 1 2 4 0 1 0 1 7 10 4 6 10 6 7 9 11 10 8 7 5 5 4 4 4 4 4 2 1 1 0 1 1 2 3 2 3 3 3 4 4 4 6 6 6 6 5 5 4 4 3 2 3 4 4 4 4 4 4 4 4 4 5 5 6 6 5 3
2 0 2 3 2 0 1 1 1 0 1 2 1 2 2 1 2 1 4 1 4 4 2 1 1 3 5 9 9 9 11 11 9 8 7 10 10 9 7 5 5 5 5 5 4 3 2 2 1 0 0 1 2 3 3 3 4 3 4 4 5 5 5 5 5 5 5 5 4 4 1 2 2 2 1 2 2 3 3 2 3 4 3 5 4 4
1 4 2 1 1 1 0 0 1 0 1 1 1 1 2 4 2 1 2 2 3 4 2 2 1 5 1 2 1 8 5 3 3 4 4 5 6 7 6 5 5 5 5 4 4 4 4 3 2 2 1 1 2 2 3 3 3 3 4 4 5 5 5 5 4 4 5 4 4 4 4 4 2 0 0 1 1 1 2 2 2 3 3 3 4 4
2 5 1 1 1 0 1 1 1 1 1 1 1 3 3 2 5 2 2 2 1 2 3 1 5 4 4 2 4 2 3 1 1 2 3 4 4 4 4 5 6 6 5 5 5 4 2 3 3 2 2 2 2 2 2 3 2 4 3 4 4 4 4 4 4 4 3 3 3 4 5 5 4 4 4 4 3 2 1 1 2 3 3 2 2 3
1 2 1 6 2 0 0 0 0 0 1 1 1 1 1 1 4 4 1 0 0 2 6 1 7 6 8 5 1 2 1 3 0 3 3 5 5 4 6 6 6 6 6 5 5 5 4 2 2 3 4 4 3 2 2 1 1 3 3 4 5 4 4 4 4 3 3 3 4 4 4 4 5 5 5 4 4 3 2 3 3 3 2 2 3 4
2 3 0 1 0 0 1 1 0 1 1 1 0 2 1 1 1 1 1 2 3 2 6 1 4 6 3 5 2 1 2 7 6 6 7 5 5 6 8 7 8 8 7 6 5 4 4 4 4 2 2 3 3 1 1 2 1 3 3 4 5 4 4 4 4 4 4 4 4 4 5 4 4 4 4 4 4 3 5 5 4 4 6 4 3 3
3 3 1 1 1 5 2 0 1 0 0 0 1 0 0 0 0 2 3 1 0 2 4 5 2 5 6 8 0 6 8 11 11 8 5 8 8 10 8 7 6 5 5 5 5 4 4 4 4 4 4 3 2 1 1 1 2 3 3 4 4 3 2 2 2 3 3 4 3 3 4 4 5 4 5 4 4 5 6 5 4 4 3 4 4 5
1 1 2 1 1 1 1 1 3 1 1 1 0 0 1 1 1 2 3 2 3 3 3 6 3 5 7 6 11 11 15 15 12 8 12 13 12 11 9 8 9 8 7 6 6 5 5 5 5 5 5 5 4 3 1 1 2 4 3 5 4 3 3 4 5 4 4 4 4 4 4 4 4 4 5 4 5 6 5 4 4 4 5 4 4 4
1 1 3 1 3 1 2 3 7 8 6 0 1 2 1 1 2 1 1 2 2 3 3 2 6 7 7 7 7 11 12 15 14 15 14 12 11 10 9 10 9 9 8 7 6 6 5 5 4 4 4 4 3 2 1 1 2 3 4 4 4 4 4 4 4 4 3 4 4 5 5 5 5 5 5 6 5 5 4 4 4 4 3 4 5 4
2 0 4 1 1 2 5 1 1 2 2 4 8 7 8 6 2 1 7 1 1 2 4 3 9 9 11 3 8 7 5 5 9 13 13 10 10 10 9 8 9 9 8 7 6 6 6 5 4 4 3 3 4 3 2 1 2 4 4 3 3 4 4 4 4 3 3 4 4 5 5 5 4 4 5 6 5 5 4 4 4 3 4 5 4 4
2 3 3 2 6 2 3 0 1 1 2 1 3 2 3 2 5 3 2 4 1 2 3 2 1 12 6 3 4 5 5 6 7 7 9 8 9 9 9 9 8 9 10 9 7 7 6 6 6 5 5 5 5 4 3 2 3 4 4 4 3 4 3 3 3 3 3 4 5 5 4 5 5 5 5 6 5 6 5 4 4 4 5 5 4 4
4 1 0 5 4 4 2 1 0 1 0 1 1 0 2 3 4 5 3 4 5 0 1 1 2 11 7 1 4 5 6 8 5 8 11 7 6 7 8 8 9 7 6 5 5 5 6 5 5 5 5 5 4 4 4 4 3 4 4 4 4 4 4 4 4 4 4 4 5 4 5 5 4 6 6 6 5 5 4 4 4 4 5 4 4 5
1 3 3 2 4 4 2 2 1 0 1 2 2 4 3 1 1 1 3 1 1 7 7 7 7 10 3 3 4 2 3 2 4 5 6 8 6 7 8 8 7 7 7 7 7 8 6 6 7 7 6 6 5 4 4 4 4 4 4 4 4 3 3 4 3 4 4 4 5 5 6 5 5 6 6 5 5 5 5 5 4 4 5 5 5 4
1 1 5 3 4 2 2 1 2 2 7 3 2 1 3 6 3 2 3 0 4 3 5 3 7 13 4 5 4 4 4 4 2 4 4 5 6 9 7 7 8 8 10 9 8 8 10 9 6 6 6 5 5 5 5 4 4 4 4 4 3 4 4 4 4 4 4 4 5 5 6 5 5 5 5 4 5 5 4 5 5 4 4 4 4 4
1 0 2 6 6 8 8 3 2 2 2 2 2 4 4 3 1 2 5 3 9 3 6 11 8 12 15 11 6 5 4 6 6 4 6 7 7 5 5 8 10 10 11 12 11 9 6 6 8 7 7 6 5 5 4 5 5 4 4 4 3 4 4 4 5 4 5 4 5 5 5 5 4 4 4 4 4 4 4 4 4 4 4 3 3 4
1 1 5 4 7 7 5 6 3 4 2 3 2 4 5 6 7 7 8 9 6 6 12 7 6 5 20 19 7 8 7 6 6 6 6 5 8 10 10 7 6 6 6 6 6 9 11 9 8 8 8 7 6 5 4 4 4 5 6 5 4 4 4 4 5 5 5 4 5 5 4 4 3 4 4 3 4 4 4 4 4 4 3 4 4 4
3 3 2 3 5 4 5 4 0 1 4 3 5 4 6 9 7 11 11 11 8 8 16 3 7 7 17 16 11 9 10 9 11 13 13 8 3 3 4 9 11 11 10 10 12 11 10 11 10 9 8 8 6 6 6 5 4 4 4 4 4 4 4 4 6 5 5 4 5 4 3 3 3 3 4 4 4 4 3 3 3 3 4 4 4 4
2 4 2 1 3 4 3 1 1 5 3 2 7 9 6 9 14 16 16 11 13 15 15 11 5 14 20 20 16 11 5 7 6 4 1 4 9 11 10 11 13 12 13 14 13 13 11 11 10 10 9 8 9 8 7 6 6 5 6 5 4 5 4 5 5 5 5 5 4 3 3 4 3 3 3 4 3 3 2 3 3 3 4 4 4 4
3 5 4 1 1 5 3 2 0 0 1 6 9 5 5 6 7 10 5 6 6 13 17 16 16 21 23 18 13 6 6 6 5 7 11 10 9 10 12 13 13 14 14 13 11 12 11 10 10 10 10 11 10 10 8 7 6 6 6 5 5 5 4 5 5 5 5 4 4 3 3 3 3 3 4 2 3 3 3 3 3 3 4 4 4 4
1 3 2 1 1 5 2 2 2 3 2 6 12 11 7 7 9 8 10 11 8 15 12 6 10 17 24 11 4 9 7 9 14 14 10 10 10 9 12 14 14 14 14 14 13 11 11 12 12 13 13 12 10 9 8 8 7 7 7 6 6 6 5 6 5 5 4 4 4 4 4 3 3 3 3 3 3 3 3 3 3 3 3 4 5 6
5 4 3 1 1 6 3 0 4 5 5 9 13 15 20 16 11 1 5 2 15 14 7 9 15 19 17 3 6 9 7 9 9 10 10 10 9 11 14 15 16 15 14 14 13 14 14 15 15 15 12 10 10 10 9 8 8 8 8 7 6 6 6 6 5 5 4 4 4 4 3 3 3 3 3 3 3 3 3 3 3 4 4 5 4 4
2 4 2 2 2 2 4 5 1 3 7 10 5 2 8 12 15 15 12 16 16 12 13 14 18 15 7 9 9 17 8 7 9 12 10 10 11 11 12 13 14 14 12 12 14 16 15 11 10 10 11 10 9 8 7 7 8 7 6 7 6 7 6 6 4 4 4 4 4 3 3 3 3 4 3 3 3 3 3 3 3 3 3 3 4 4
5 3 3 1 1 1 1 1 3 8 13 5 2 2 3 3 7 16 18 12 10 13 17 17 19 19 22 17 16 12 6 6 6 8 8 10 9 9 13 15 14 12 14 14 12 11 12 13 11 10 9 9 9 8 8 6 6 6 6 7 7 6 7 5 5 4 4 4 3 3 3 3 3 3 3 3 2 2 2 3 3 4 4 4 3 4
7 6 3 0 2 1 1 2 1 11 5 7 6 0 2 3 2 1 9 17 17 16 18 19 24 23 22 21 10 1 5 7 7 9 12 11 10 12 11 12 14 13 13 14 17 15 14 14 16 15 13 8 9 8 7 8 7 8 7 5 7 6 6 5 5 4 4 4 4 3 3 3 3 3 2 2 2 2 3 3 3 3 4 4 5 4
8 3 2 2 1 4 3 4 11 8 16 9 1 1 6 5 6 6 6 13 6 13 17 18 23 22 20 17 3 3 3 4 7 17 7 12 13 13 15 14 12 14 15 13 13 15 13 11 10 10 10 9 9 9 8 8 7 8 7 7 6 6 5 5 5 4 4 4 3 3 3 3 3 2 1 1 2 3 3 3 4 4 2 4 5 6
2 5 3 4 3 4 2 5 5 3 5 8 7 3 3 2 5 4 2 10 5 7 11 16 17 20 16 9 2 1 1 3 8 13 1 6 8 10 8 6 3 4 5 5 4 5 7 7 8 9 12 11 9 8 8 8 8 9 8 7 6 7 5 5 5 4 4 4 4 4 3 3 2 1 1 0 1 2 3 3 3 3 3 3 5 6
3 4 2 6 3 3 1 4 4 4 9 7 4 2 1 3 4 3 2 8 7 3 5 11 14 14 12 7 2 2 2 2 9 10 6 6 4 4 6 4 3 4 6 9 12 13 10 10 12 11 10 10 11 8 8 9 9 9 8 7 6 6 6 5 4 4 4 4 3 3 3 2 2 1 0 1 2 2 3 3 4 4 4 4 4 5
3 1 1 0 2 2 3 2 8 5 5 1 3 2 2 4 3 2 5 7 2 1 3 8 10 12 6 3 6 6 7 4 9 8 3 5 2 0 4 5 5 5 5 5 4 8 11 12 12 10 11 12 11 8 9 9 9 8 8 7 5 6 5 5 5 4 4 4 3 3 2 1 1 0 1 2 3 2 2 3 4 4 4 5 4 6
2 1 2 10 5 4 6 6 4 7 8 7 5 3 2 3 1 1 7 13 3 2 4 6 7 4 2 5 7 6 12 10 3 3 4 2 2 2 3 2 3 4 8 8 9 10 11 10 13 14 13 10 9 9 8 9 9 8 7 7 6 6 5 4 3 4 4 3 3 3 1 0 0 1 2 2 2 3 3 3 3 4 4 5 6 6
1 2 2 2 3 8 5 4 9 7 11 10 2 7 5 2 2 8 9 2 1 1 3 7 6 5 6 9 8 10 7 3 5 2 0 1 2 1 2 4 6 6 4 4 9 10 10 8 8 8 7 6 9 8 8 9 10 8 7 6 6 5 3 4 4 4 4 4 3 1 1 1 2 1 2 2 2 3 4 4 3 4 4 4 5 6
11 8 7 7 3 3 2 1 4 5 5 5 9 2 0 4 9 7 3 3 6 4 3 5 8 7 9 8 11 12 10 6 3 3 2 1 3 5 5 6 8 10 10 10 7 5 11 10 9 9 9 6 7 8 8 10 10 8 6 7 5 4 4 4 4 4 4 3 2 1 1 1 1 2 1 2 2 2 4 4 4 5 5 6 6 7
6 4 3 5 6 7 6 7 9 13 3 10 13 7 8 14 5 6 3 3 3 5 4 4 7 9 9 9 9 10 11 8 6 4 2 2 3 2 3 3 4 5 5 4 7 9 8 10 8 8 6 6 6 7 7 11 10 8 7 6 3 4 4 4 4 4 3 2 1 1 1 1 2 2 1 2 2 3 3 5 4 5 6 6 6 7
11 8 8 6 7 8 10 12 14 5 6 11 11 8 8 13 4 6 4 4 4 8 5 3 8 5 9 10 8 7 6 8 9 5 7 7 6 7 8 7 7 9 9 10 9 7 7 11 11 9 7 5 7 6 7 7 11 8 8 5 4 4 5 4 4 4 3 1 1 1 1 2 2 2 2 2 2 4 5 5 5 6 6 6 7 7
3 3 2 1 7 5 8 10 4 3 6 8 10 9 7 5 6 3 7 8 9 11 6 7 7 5 5 6 6 6 8 6 6 6 6 4 6 4 3 4 4 4 5 7 7 7 8 8 9 10 9 5 5 6 6 6 10 11 7 5 4 5 5 5 5 4 2 1 1 1 2 3 3 3 3 3 3 3 4 4 5 6 7 7 7 6
4 3 2 4 2 3 9 6 14 21 14 7 11 11 8 7 10 5 5 9 13 10 5 7 9 7 5 6 9 10 8 7 8 7 6 5 7 8 8 8 7 8 10 11 9 10 10 9 10 10 9 9 4 6 6 6 5 7 7 6 5 5 5 5 5 3 1 1 1 2 1 2 3 4 5 4 5 5 5 5 5 6 6 6 7 7
5 4 4 7 1 5 13 8 9 3 4 5 8 9 12 14 13 11 12 11 10 8 6 8 4 7 3 5 10 8 10 6 8 9 8 9 9 9 9 9 9 8 5 7 9 9 9 10 10 10 9 9 7 7 7 8 8 7 6 5 5 5 6 5 4 3 1 0 1 1 2 2 4 4 4 5 4 5 7 6 5 6 7 8 8 9
3 6 5 4 7 10 11 16 21 11 8 14 14 12 13 11 11 10 9 10 10 12 15 12 7 10 6 12 6 8 9 10 9 9 9 8 7 8 10 9 8 9 9 11 9 10 12 10 10 10 10 9 7 8 8 8 7 6 7 5 5 5 6 5 2 2 1 0 1 2 2 2 2 3 4 5 5 5 5 7 8 8 7 6 6 6
5 6 3 2 3 7 10 13 2 3 9 8 7 12 11 12 11 14 12 9 10 13 14 12 10 6 8 8 8 8 11 11 7 7 10 10 11 10 8 9 8 9 8 8 9 9 9 9 11 11 10 9 8 9 9 8 6 5 5 5 4 5 6 4 3 2 0 0 1 2 2 3 4 3 4 5 6 7 7 8 10 9 9 9 8 10
10 12 8 8 7 12 10 11 7 8 9 13 14 9 7 6 4 7 11 12 13 11 9 7 9 8 8 10 6 8 11 10 8 7 7 8 9 9 10 11 12 10 10 10 11 9 10 10 10 10 10 10 8 8 8 7 6 5 4 4 4 5 5 4 3 1 1 1 2 2 2 3 4 4 4 5 6 6 7 8 7 9 13 15 16 15
Wind_Direction
108 81 97 142 183 199 245 175 176 202 127 35 116 94 194 173 283 279 279 255 82 19 251 230 266 269 277 272 290 277 181 215 248 248 246 251 251 253 254 251 251 249 244 265 266 253 243 243 245 244 237 238 246 250 239 228 223 212 207 187 221 211 181 177 181 184 178 190 216 244 223 232 225 220 225 238 234 231 232 229 226 226 225 222 226 221
68 72 47 216 212 198 255 258 6 7 98 198 141 133 154 192 214 234 187 1 326 116 289 338 316 285 258 283 282 320 149 215 219 231 247 250 245 250 252 261 255 250 294 308 295 282 270 261 257 254 241 223 234 243 218 220 220 213 209 208 224 175 192 200 197 193 189 194 191 177 207 210 222 221 222 237 229 231 232 229 227 228 226 222 222 224
37 114 149 241 222 223 279 33 124 157 300 169 200 190 103 278 249 283 277 334 307 82 266 349 350 282 284 282 290 171 192 234 216 213 225 223 248 250 252 256 267 286 278 302 282 284 287 293 294 268 255 243 229 247 220 236 235 221 216 229 228 202 198 209 203 186 209 209 217 196 208 186 234 233 227 234 237 232 237 237 235 235 231 224 228 225
62 288 248 354 59 35 13 31 104 97 72 71 53 49 225 266 47 272 290 353 336 175 282 7 333 290 305 296 287 247 201 253 240 227 242 221 233 238 238 240 257 271 277 283 286 301 311 304 300 320 289 270 305 283 277 259 239 238 231 232 225 220 208 208 209 210 219 206 206 225 198 216 209 242 259 250 264 263 259 255 239 243 230 225 231 223
140 203 272 50 49 69 47 13 101 143 8 344 109 127 158 343 3 152 252 318 300 299 49 329 346 322 339 358 325 318 252 293 301 306 271 266 242 255 291 294 232 244 253 275 308 313 328 341 327 287 268 274 267 264 255 252 245 243 242 237 226 226 216 214 211 214 207 187 195 211 295 336 311 281 282 311 282 243 246 262 245 243 223 230 232 225
33 313 94 41 32 51 98 358 52 115 129 316 240 163 184 151 307 333 326 26 18 348 336 55 18 306 289 286 249 276 342 289 287 276 267 261 272 265 261 257 276 272 250 238 249 280 292 300 316 338 331 295 266 266 255 233 241 240 250 244 237 235 230 222 219 210 188 203 203 200 222 256 247 265 257 248 246 245 236 236 235 239 220 225 231 228
157 347 85 99 81 56 62 146 251 172 186 88 263 152 148 147 116 49 358 60 32 163 336 45 129 262 327 298 244 267 312 289 312 300 270 278 267 258 242 251 263 258 32 241 245 335 11 349 355 347 356 336 296 272 275 265 255 252 251 250 241 236 241 238 229 196 188 205 208 214 220 226 230 242 250 232 234 224 233 222 237 238 227 222 225 232
51 354 57 42 60 37 9 354 204 135 102 249 142 132 124 109 101 170 88 101 194 257 282 40 96 170 307 287 262 281 276 278 317 297 289 282 281 261 247 250 256 263 249 245 35 3 346 351 45 353 332 347 336 314 334 324 304 277 269 269 258 245 242 235 215 190 195 205 211 218 229 230 236 230 253 245 250 241 240 241 249 244 239 228 221 231
91 349 56 26 62 79 221 214 285 200 181 215 185 139 101 123 159 114 85 103 224 323 282 333 339 5 261 264 323 356 194 276 268 264 270 276 285 290 276 250 240 236 223 176 103 50 44 43 16 16 23 348 1 7 9 6 2 356 339 322 311 290 286 286 231 203 205 210 212 215 223 243 239 242 252 264 274 278 266 270 272 263 257 243 235 230
346 107 186 120 128 238 241 271 230 221 67 271 153 71 74 77 80 89 95 81 343 57 282 241 315 205 282 282 312 349 254 264 244 234 239 239 235 237 198 201 194 183 151 165 152 160 63 356 359 310 340 22 1 350 2 20 20 24 24 26 26 13 346 315 299 242 232 218 215 215 221 232 251 245 262 266 274 271 274 269 274 271 271 261 254 243
258 325 154 90 189 202 171 243 199 63 22 164 89 69 15 37 41 21 68 86 57 10 258 238 326 151 300 252 200 148 219 201 220 281 265 262 258 248 240 198 187 163 154 146 145 116 346 278 321 5 45 347 5 3 25 19 21 22 32 23 35 9 9 12 2 299 243 228 216 223 228 230 246 252 256 280 280 278 290 275 279 277 271 266 258 255
16 6 60 262 85 131 128 356 298 117 48 108 98 120 62 333 11 38 342 30 97 278 258 259 249 212 174 291 269 235 271 204 169 194 197 213 210 217 217 223 204 180 174 174 141 153 29 55 27 24 33 10 347 10 12 10 9 21 26 32 36 18 9 2 2 14 0 249 221 225 233 238 241 249 253 255 266 273 280 287 291 294 307 290 281 270
321 214 239 331 238 160 261 69 319 35 8 60 55 35 86 272 33 284 14 301 210 202 256 337 263 15 240 223 226 236 230 240 219 185 190 194 206 215 224 212 204 191 185 178 189 205 223 161 202 32 12 17 15 5 359 3 14 17 30 34 49 20 6 4 3 15 3 21 351 254 234 236 247 246 242 251 268 286 289 294 305 315 314 317 325 295
284 355 352 286 54 51 140 141 268 7 350 74 181 134 77 28 36 265 278 240 297 303 260 309 276 256 252 282 233 226 224 212 204 214 195 180 190 197 201 207 199 202 192 191 195 205 200 196 213 233 287 19 8 7 4 4 25 26 39 36 54 24 13 8 19 13 22 16 10 3 320 252 234 251 246 257 255 282 285 292 296 307 312 314 304 309
329 337 262 138 217 53 38 140 182 230 160 214 146 121 196 137 161 238 234 244 214 216 273 282 75 234 109 218 227 228 269 282 242 239 219 206 192 186 194 190 196 202 221 199 190 202 194 192 183 173 114 39 19 13 13 16 22 50 42 47 50 34 11 20 15 18 24 19 17 25 34 43 63 143 85 304 274 308 340 352 359 347 344 347 323 318
203 214 267 278 233 115 137 262 126 87 67 242 169 91 78 238 128 192 208 165 278 341 343 226 214 184 181 261 286 275 268 293 283 189 143 190 202 176 164 182 194 206 209 200 193 210 215 193 187 163 110 72 54 26 25 29 31 59 48 61 59 50 21 20 21 18 20 14 29 34 43 37 53 59 66 53 38 43 56 33 53 6 3 351 324 330
11 285 356 311 33 137 235 207 320 174 165 231 80 236 214 117 99 93 58 39 118 49 254 182 316 297 298 309 294 2 94 234 207 209 197 196 198 178 194 203 202 207 210 195 197 191 183 176 196 155 127 104 73 51 48 43 57 77 66 65 54 33 26 23 17 16 14 21 44 33 39 39 46 56 61 63 45 27 35 55 42 29 357 6 24 353
154 255 329 69 351 312 241 159 316 262 208 57 134 239 262 163 121 130 244 336 59 137 263 40 227 298 28 265 324 277 211 233 231 224 219 222 202 198 213 207 202 205 207 202 202 196 181 172 161 146 116 118 114 118 81 57 53 76 86 84 76 48 33 11 19 20 22 32 42 37 40 42 53 60 58 54 53 36 43 22 18 13 19 4 346 5
115 318 310 275 181 268 359 290 329 238 210 149 199 315 154 211 132 331 93 318 299 283 283 309 290 260 189 250 354 240 218 227 227 224 226 230 219 217 217 220 217 218 211 204 206 188 178 167 161 147 137 126 116 103 109 85 68 70 64 74 82 62 38 22 33 35 41 46 60 60 56 57 53 55 61 57 58 53 49 32 22 28 7 14 11 20
35 172 292 299 138 311 346 89 256 272 10 114 353 9 318 120 190 111 202 179 116 276 41 288 25 252 208 221 197 214 208 214 210 206 220 216 210 206 208 204 201 203 199 197 196 182 173 170 164 158 148 128 118 108 84 93 83 74 71 67 53 45 35 47 41 43 52 46 64 59 58 51 60 59 63 56 58 54 49 35 38 28 30 17 24 21
103 114 263 286 284 332 258 186 216 162 162 30 118 300 332 289 218 113 356 158 192 184 185 231 322 274 259 212 182 217 211 211 198 205 213 214 212 208 202 195 197 197 195 197 187 176 169 165 163 155 145 130 116 116 110 108 106 102 76 65 62 68 54 58 47 51 53 56 55 63 58 49 47 48 51 58 52 60 46 38 37 34 24 37 28 20
91 92 204 316 26 237 226 263 205 175 155 175 163 198 179 124 136 156 273 26 88 117 238 134 256 270 266 195 214 226 243 229 219 206 211 211 206 202 204 205 193 193 203 190 186 170 169 167 159 151 131 118 112 110 120 156 103 80 77 90 76 76 58 76 52 57 56 60 63 63 56 54 52 53 53 58 48 51 45 38 34 16 33 41 16 33
151 146 96 234 200 210 262 296 230 116 135 184 177 258 151 137 105 106 206 269 31 250 109 160 53 270 249 215 230 251 253 241 222 210 225 213 206 204 206 202 202 195 185 190 178 172 171 169 165 161 152 146 142 155 162 150 119 112 104 88 86 92 80 83 87 68 68 68 68 64 63 63 55 55 54 56 42 46 34 30 29 21 42 29 17 22
99 103 50 288 303 304 332 286 36 53 158 355 284 251 123 194 185 178 178 180 144 117 135 344 244 259 287 258 261 255 256 251 242 196 211 212 208 209 202 199 197 198 202 183 170 165 170 163 157 147 147 148 160 165 168 164 141 116 103 113 106 100 92 80 79 79 75 76 72 70 69 61 55 58 51 52 40 43 29 27 28 20 35 25 28 24
148 276 124 341 355 338 340 355 353 316 79 219 223 221 201 125 77 170 101 73 297 213 173 135 235 277 272 332 293 318 350 327 235 241 201 202 221 210 202 201 196 188 176 177 174 171 164 163 166 172 164 163 174 176 175 163 145 129 128 118 115 111 109 97 89 86 78 82 80 65 66 57 54 58 50 51 43 40 34 28 27 26 25 18 23 10
88 209 120 166 208 258 277 308 267 268 228 224 226 221 218 180 153 123 245 140 209 279 134 189 246 253 275 325 331 320 330 312 273 244 249 223 209 201 201 198 191 183 186 179 174 168 178 180 174 169 168 168 183 183 175 168 153 146 129 126 139 127 108 98 94 92 88 79 80 71 64 59 59 57 58 55 49 42 39 35 30 24 18 20 14 5
163 39 161 167 164 208 208 213 253 120 58 202 241 184 221 195 199 105 100 109 208 208 195 234 216 289 298 274 288 286 274 254 259 244 223 226 236 237 217 195 190 190 185 185 182 180 166 172 180 182 171 172 184 186 185 168 163 150 134 123 128 126 115 113 101 95 91 84 82 77 69 65 65 66 64 60 54 47 42 35 27 26 15 353 16 12
64 282 249 184 227 226 183 207 209 185 191 231 178 247 203 177 180 161 170 223 167 97 271 223 217 248 264 273 236 242 249 252 253 250 250 250 228 206 204 202 200 200 200 184 180 180 183 183 180 181 178 175 184 189 186 185 171 155 140 137 138 131 117 114 103 98 94 93 85 81 80 82 76 74 68 62 56 49 40 34 25 17 0 10 9 0
145 182 263 134 265 240 226 234 202 201 220 217 208 204 187 198 153 188 224 215 150 188 241 247 179 213 257 256 259 225 220 220 222 223 220 220 210 186 182 196 202 203 197 193 197 190 181 183 183 183 179 179 178 182 184 178 169 141 123 129 137 125 124 124 109 104 103 97 94 97 100 92 83 73 68 56 53 38 23 15 10 8 7 6 359 348
111 252 205 174 262 297 290 269 264 208 278 282 240 228 212 168 202 205 223 216 194 232 242 263 261 254 259 266 259 248 206 227 239 247 233 203 212 203 202 207 205 203 199 200 197 193 189 185 181 183 176 179 181 181 181 179 171 159 144 146 142 127 145 115 113 114 109 105 115 116 104 95 84 73 65 59 42 31 9 7 1 4 5 358 351 340
150 272 145 154 12 286 307 338 52 132 193 270 262 252 216 218 240 236 267 262 251 274 272 267 274 276 271 253 268 264 199 228 266 260 228 226 216 207 207 211 211 208 207 204 195 193 189 185 183 179 181 184 184 184 181 177 169 151 142 145 144 140 147 120 120 115 118 123 130 119 105 91 83 76 64 52 47 19 19 1 358 2 357 355 349 348
113 252 47 81 320 297 321 30 297 2 286 248 276 257 218 199 230 212 210 213 177 229 239 259 272 260 264 279 202 251 220 208 227 234 237 236 223 211 211 216 214 213 207 201 196 188 187 187 185 186 188 186 184 181 180 174 166 153 152 153 147 147 134 118 122 126 131 137 128 116 108 106 94 78 60 49 31 17 4 0 2 359 352 350 354 346
184 143 164 151 219 261 267 87 331 320 332 291 260 242 216 212 213 290 272 221 217 210 225 228 242 244 254 305 295 269 210 229 232 235 238 247 232 210 214 217 217 216 207 197 192 193 192 190 190 188 184 179 181 180 185 171 158 161 159 152 155 138 127 128 133 135 134 137 124 123 117 114 99 80 60 36 26 15 11 10 360 356 356 351 334 331
121 135 163 170 191 251 287 312 299 17 284 237 233 190 156 190 204 217 234 219 222 162 217 215 240 264 296 278 243 263 239 221 218 236 217 222 225 219 226 225 222 215 208 201 198 193 194 189 185 184 181 178 175 175 169 172 160 156 153 145 143 136 135 135 141 139 140 133 129 129 124 113 92 75 52 35 25 18 11 5 354 332 326 327 340 345
160 153 203 158 135 263 341 350 353 258 248 247 198 205 218 214 186 204 236 242 230 216 243 267 266 263 256 253 251 259 283 261 250 253 257 241 228 218 215 221 220 209 203 199 199 200 191 184 177 167 166 172 170 166 155 162 152 143 137 146 141 140 137 140 142 142 145 134 138 123 110 98 86 74 49 34 27 13 3 348 339 345 341 336 332 327
166 158 175 285 161 58 67 85 191 241 229 271 261 201 182 110 142 170 295 258 236 220 217 237 249 254 257 260 270 318 263 278 291 252 236 238 214 216 214 219 218 204 201 199 197 194 180 181 180 176 173 157 157 162 164 160 152 144 149 145 141 141 139 142 140 146 138 130 128 115 110 102 88 69 51 32 16 11 354 342 334 323 322 329 324 316
156 104 126 230 145 206 202 187 238 321 316 310 330 192 171 184 173 172 240 287 206 208 203 224 244 252 259 265 324 290 292 311 311 284 218 214 220 215 212 218 206 204 204 202 191 191 185 170 160 157 144 154 160 158 164 155 149 142 141 140 144 138 141 139 142 151 144 136 136 122 115 104 100 84 44 22 21 352 341 335 331 322 321 332 322 321
142 167 233 152 255 129 177 315 322 339 267 285 246 271 229 201 157 186 116 286 282 239 204 209 235 252 260 277 264 237 50 2 308 282 348 219 229 226 231 241 225 205 193 168 131 121 135 140 131 141 149 152 159 162 152 151 147 143 142 143 143 139 144 143 154 158 146 147 148 133 124 122 112 100 5 358 322 309 310 308 301 292 310 315 311 314
30 91 127 158 223 72 157 190 222 201 246 213 256 273 285 188 152 184 39 288 273 226 208 194 231 249 254 251 211 133 108 241 258 272 300 308 290 220 205 220 186 173 167 167 163 154 150 151 149 146 143 148 159 165 153 150 144 141 144 147 147 141 143 153 161 160 152 155 152 139 128 124 105 101 122 266 281 272 300 314 308 300 306 301 301 297
71 353 43 323 233 215 139 192 244 208 242 235 218 261 233 152 145 61 341 276 262 258 213 180 218 241 259 187 149 152 156 198 268 262 289 309 300 74 167 170 147 140 138 132 131 147 141 134 129 140 153 164 168 154 152 147 142 142 145 149 142 143 152 164 170 167 141 135 132 126 124 114 99 134 304 306 300 296 291 292 310 315 314 307 305 304
176 251 145 214 185 207 196 261 326 292 264 262 237 189 163 170 125 58 240 244 245 244 214 180 231 237 155 155 167 182 221 212 210 263 315 306 70 42 44 73 116 138 147 144 141 136 138 149 153 160 164 161 152 150 150 144 138 143 146 145 143 152 163 160 139 134 135 121 95 77 60 56 158 292 279 258 269 290 302 301 308 310 315 315 315 315
329 104 324 72 201 208 202 209 244 267 246 207 244 147 176 117 231 216 235 218 184 280 203 192 222 217 174 184 195 222 245 288 285 288 188 181 157 137 111 115 107 88 72 109 136 138 135 137 133 129 134 142 147 149 147 143 138 142 144 142 150 158 143 127 135 129 105 94 87 70 31 351 322 246 259 296 337 337 320 314 314 305 309 313 310 306
184 149 204 179 194 67 102 217 330 291 284 128 130 81 239 155 233 212 244 273 198 240 199 226 203 228 176 217 219 228 251 271 264 250 249 205 159 165 161 157 150 149 146 140 140 146 139 136 142 149 149 147 146 147 147 139 138 143 142 143 153 142 132 129 116 107 103 91 72 40 327 307 292 307 313 310 311 307 308 311 323 320 322 316 310 302
196 135 221 243 184 157 160 173 205 215 197 175 154 178 208 216 193 177 143 290 242 201 208 213 238 209 200 209 224 236 240 249 275 244 238 234 197 152 161 155 138 135 136 133 139 147 139 132 135 137 138 141 146 146 147 141 140 143 141 145 148 133 118 105 105 105 90 85 47 342 312 298 309 302 307 302 304 310 314 320 324 315 306 303 300 299
204 194 172 177 209 157 196 212 233 226 190 207 207 212 200 222 192 178 165 219 264 271 190 208 255 219 200 209 231 231 250 231 234 199 195 205 191 184 181 180 170 162 156 151 151 146 140 142 144 136 132 138 144 144 142 142 137 140 139 157 142 130 122 119 106 98 90 61 340 317 296 310 307 320 318 315 318 333 327 321 326 316 302 303 299 295
288 219 165 96 239 272 279 233 272 301 241 252 255 248 247 269 272 194 221 255 247 240 197 218 251 229 212 208 213 253 226 241 221 225 223 202 189 190 165 149 152 146 139 130 135 141 134 128 130 135 133 130 138 135 134 137 140 140 153 146 134 131 127 119 107 99 91 60 336 322 334 343 330 321 320 319 333 327 306 295 294 292 293 294 288 285
245 159 167 224 267 122 255 259 223 236 238 233 242 260 276 260 255 219 235 231 253 255 240 238 247 252 219 183 206 230 239 219 221 222 199 189 192 188 182 178 175 169 161 157 154 140 136 140 140 142 140 136 142 131 127 121 116 128 136 137 136 129 120 108 110 105 88 39 333 328 347 341 321 321 326 336 331 323 305 301 295 290 286 282 286 289
301 180 166 226 173 189 247 255 261 270 313 255 233 260 259 256 254 243 230 246 254 272 255 253 215 252 182 219 222 221 242 219 208 214 199 199 194 185 185 183 173 165 169 153 151 149 144 148 148 146 144 141 145 135 129 124 126 134 131 132 128 121 107 105 106 107 98 354 310 294 299 307 314 320 317 311 311 308 309 298 283 274 280 289 294 302
186 122 223 172 196 260 299 289 273 280 281 269 256 231 237 249 256 262 249 246 258 264 265 260 208 234 197 236 211 216 239 239 214 206 197 192 186 189 191 182 175 169 155 157 162 158 158 154 148 150 142 143 143 136 129 128 133 135 132 130 126 115 108 112 115 123 95 134 320 295 288 292 291 299 301 300 302 285 267 274 286 283 271 254 245 251
99 214 201 105 254 264 226 249 248 296 281 278 254 251 252 244 242 256 268 265 249 248 252 259 263 229 230 235 220 209 223 240 212 189 199 196 195 187 174 168 169 164 165 159 153 155 146 150 148 148 145 145 146 138 135 135 134 130 123 122 119 115 116 127 125 118 127 229 256 275 303 312 311 310 308 301 293 290 288 262 255 266 282 291 276 270
195 212 145 201 185 249 239 245 227 239 269 257 268 261 232 243 215 237 247 249 254 244 246 245 261 268 244 241 212 207 224 226 216 183 195 193 196 184 177 166 164 168 164 158 150 154 151 152 150 144 146 149 146 140 137 132 130 123 121 118 127 121 132 130 129 148 190 228 260 280 295 303 307 309 299 286 284 284 286 298 283 263 269 279 289 289